Regional Weather Roundup
Issued by NWS

Home | Current Version | Previous Version | Graphics & Text | Print | Product List | Glossary On
Versions: 1 2 3 4 5 6 7 8 9 10 11 12 13 14 15 16 17 18 19 20 21 22 23 24 25 26 27 28 29 30 31 32 33 34 35 36 37 38 39 40 41 42 43 44 45 46 47 48 49 50
000
ASUS43 KTOP 252059
RWRKS

WEATHER ROUNDUP FOR KANSAS
NATIONAL WEATHER SERVICE GOODLAND KS
400 PM CDT THU MAY 25 2017

NOTE:  "FAIR" INDICATES FEW OR NO CLOUDS BELOW 12,000 FEET WITH NO
SIGNIFICANT WEATHER AND/OR OBSTRUCTIONS TO VISIBILITY.

KSZ001>006-013>018-027>032-041>047-252200-
NORTHWEST KANSAS

CITY           SKY/WX    TMP DP  RH WIND       PRES   REMARKS
GOODLAND       SUNNY     85  52  32 E14       29.50F
HAYS           SUNNY     79  58  48 S15       29.47F
HILL CITY      SUNNY     85  55  35 S9        29.46F
RUSSELL        SUNNY     77  57  50 S15G28    29.48S
$$

KSZ061>065-074>080-084>089-252200-
SOUTHWEST KANSAS

CITY           SKY/WX    TMP DP  RH WIND       PRES   REMARKS
DODGE CITY     SUNNY     82  56  40 S16       29.49F
ELKHART          N/A     90  42  18 W13         N/A
GARDEN CITY    SUNNY     89  48  24 S13       29.47F
GREAT BEND     SUNNY     78  58  49 S22G29    29.48F
LIBERAL        SUNNY     91  55  29 SE9       29.48F
$$

KSZ066>073-081>083-090>101-252200-
SOUTHEAST KANSAS

CITY           SKY/WX    TMP DP  RH WIND       PRES   REMARKS
CHANUTE        CLOUDY    79  57  46 SE20      29.59F
COFFEYVILLE    SUNNY     79  59  50 SE16G25   29.59F
HUTCHINSON     MOSUNNY   80  56  43 S22       29.50F
MEDICINE LODGE   N/A     83  55  38 S16G22    29.48F
NEWTON         CLOUDY    79  57  46 S16G24    29.53F
PARSONS        MOSUNNY   79  55  43 S13G23    29.60F
WICHITA INTL   MOSUNNY   81  58  45 S17G24    29.51F
WICHITA JABRA  CLOUDY    79  57  46 S21       29.53F
WINFIELD       SUNNY     80  58  46 SE20G26   29.55
$$

KSZ007>012-019>026-033>040-048>060-102>105-252200-
NORTHEAST KANSAS

CITY           SKY/WX    TMP DP  RH WIND       PRES   REMARKS
CONCORDIA      SUNNY     76  56  49 S20G30    29.50F
EMPORIA        SUNNY     77  55  46 SE20G28   29.55F
LAWRENCE       SUNNY     78  54  43 SE17G26   29.59F
MANHATTAN      SUNNY     79  56  45 S16G23    29.53F
OLATHE IND     SUNNY     76  52  43 SE18G24   29.61F
OLATHE EXE     SUNNY     74  54  49 SE16G25   29.62F
SALINA         SUNNY     81  55  40 S17       29.50F
TOPEKA BILLARD SUNNY     76  54  46 SE18      29.56F
TOPEKA FORBES  SUNNY     77  53  43 SE17G25   29.56F
$$




USA.gov is the U.S. government's official web portal to all federal, state and local government web resources and services.